MDT,Max TemperatureF,Mean TemperatureF,Min TemperatureF,Max Dew PointF,MeanDew PointF,Min DewpointF,Max Humidity, Mean Humidity, Min Humidity, Max Sea Level PressureIn, Mean Sea Level PressureIn, Min Sea Level PressureIn, Max VisibilityMiles, Mean VisibilityMiles, Min VisibilityMiles, Max Wind SpeedMPH, Mean Wind SpeedMPH, Max Gust SpeedMPH,PrecipitationIn, CloudCover, Events, WindDirDegrees
2013-5-1,55,43,30,38,32,26,92,67,41,30.61,30.30,29.74,10,6,1,29,21,33,0.01,8,Rain-Snow,25
2013-5-2,51,41,30,28,19,6,85,51,16,30.73,30.60,30.45,10,10,4,22,10,28,T,5,Snow,355
2013-5-3,69,49,29,27,19,11,72,41,10,30.43,30.17,29.99,10,10,10,21,11,28,0.00,0,,315
2013-5-4,69,51,32,22,19,13,59,38,16,30.15,30.06,29.99,10,10,10,22,7,30,0.00,0,,63
2013-5-5,64,49,33,21,16,11,44,30,16,30.22,30.12,30.01,10,10,10,21,8,25,0.00,0,,80
2013-5-6,77,59,41,42,29,19,61,39,17,30.02,29.93,29.83,10,10,10,29,10,36,0.00,3,,182
2013-5-7,81,64,46,44,34,20,71,41,10,29.83,29.76,29.68,10,10,10,28,11,33,T,1,Rain,268
2013-5-8,64,55,46,46,43,40,86,65,43,29.97,29.86,29.76,10,10,9,28,12,33,0.11,2,Rain,336
2013-5-9,65,55,45,44,42,39,92,68,43,30.12,30.04,29.96,10,10,10,25,9,30,0.00,5,,321
2013-5-10,71,57,43,48,42,31,89,58,26,30.20,30.13,30.08,10,10,5,30,5,35,0.05,3,Rain,314
2013-5-11,72,59,46,42,38,30,82,52,22,30.33,30.22,30.14,10,10,10,26,9,33,0.00,1,,50
2013-5-12,85,65,44,41,32,24,83,47,11,30.14,30.04,29.97,10,10,10,23,10,29,0.00,0,,281
2013-5-13,93,73,52,37,30,27,44,27,10,30.01,29.93,29.83,10,10,10,17,9,20,0.00,0,,253
2013-5-14,95,76,57,45,34,22,40,24,7,30.02,29.76,29.62,10,10,10,35,13,40,0.00,0,,246
2013-5-15,91,75,59,48,39,29,53,32,10,29.90,29.71,29.62,10,10,10,32,11,38,0.00,1,,301
2013-5-16,91,73,54,49,39,17,72,40,7,29.81,29.67,29.56,10,10,10,26,8,33,0.00,0,,180
2013-5-17,93,75,56,54,34,10,93,50,6,29.82,29.66,29.55,10,10,1,21,10,24,0.00,0,,202
2013-5-18,89,72,54,37,18,11,34,20,6,29.71,29.59,29.49,10,10,10,35,14,39,0.00,0,,258
2013-5-19,82,69,55,44,35,16,62,36,9,29.72,29.63,29.53,10,10,3,33,10,53,0.00,2,,342
2013-5-20,76,61,46,49,39,31,77,49,20,29.99,29.79,29.69,10,10,10,30,7,35,0.05,4,Rain,345
2013-5-21,77,63,48,48,38,28,93,56,18,29.98,29.84,29.73,10,10,7,23,7,28,T,3,Rain,284
2013-5-22,85,65,44,41,35,25,70,41,11,29.86,29.78,29.67,10,10,10,31,11,38,0.00,0,,104
2013-5-23,71,61,50,52,47,41,93,69,44,30.17,30.02,29.81,10,8,2,25,16,31,0.00,5,,96
2013-5-24,94,75,55,54,43,27,93,52,10,30.08,29.84,29.70,10,10,5,32,15,45,T,1,,166
2013-5-25,96,82,68,53,36,13,57,31,5,29.80,29.70,29.59,10,10,10,21,16,30,0.00,0,,230
2013-5-26,97,80,63,38,20,7,39,22,4,29.77,29.63,29.55,10,10,10,21,11,30,0.00,0,,256
2013-5-27,91,75,59,55,28,2,68,36,3,29.64,29.56,29.45,10,10,10,25,10,30,0.00,0,,269
2013-5-28,94,75,56,55,39,-1,78,41,3,29.80,29.54,29.29,10,10,10,24,10,31,0.00,1,,46
2013-5-29,83,71,59,53,41,29,64,39,14,29.59,29.41,29.27,10,9,1,39,14,54,T,2,Rain,336
2013-5-30,86,70,53,42,19,1,55,30,4,29.68,29.56,29.47,10,9,2,40,18,56,0.00,1,,288
2013-5-31,87,68,49,26,16,3,39,22,4,29.85,29.71,29.61,10,10,10,29,11,37,0.00,0,,321